Home   Weather   Halifax   Past weeks
Flag for Canada

Past Weather in Halifax, Nova Scotia, Canada — Yesterday and Last 2 Weeks

Now
27 °F

Passing clouds.


Feels Like: 19 °F
Forecast: 37 / 24 °F
Wind: 7 mph from West

Location: Halifax International Airport

Current Time: Mar 26, 2019 at 10:02:12 am

Latest Report: Mar 26, 2019 at 9:00 am


Visibility: 15 mi

Pressure: 30.12 "Hg

Humidity: 39%

Dew Point: 5 °F

Location of HalifaxLocation

Past Weather in Halifax — Graph

°F

Halifax Temperature Yesterday

Maximum temperature yesterday: 39 °F (at 1:00 pm)
Minimum temperature yesterday: 28 °F (at 10:00 pm)
Average temperature yesterday: 34 °F

High & Low Weather Summary for the Past Weeks

 TemperatureHumidityPressure
High50 °F (Mar 16, 4:00 pm)100% (Mar 11, 9:00 am)30.37 "Hg (Mar 11, 9:00 am)
Low18 °F (Mar 18, 6:00 am)22% (Mar 20, 5:00 pm)29.08 "Hg (Mar 23, 3:00 pm)
Average34 °F74%29.87 "Hg
* Reported Mar 11 9:00 am — Mar 26 9:00 am, Halifax. Weather by CustomWeather, © 2019

Note: Actual official high and low records may vary slightly from our data, if they occured in-between our weather recording intervals... More about our weather records

Advertising

Halifax Weather History for the Previous 24 Hours

Scroll right to see more
 ConditionsComfort  
Time TempWeatherWind HumidityBarometerVisibility
9:00 am
Tue, Mar 26
27 °FPassing clouds.7 mph39%30.12 "Hg15 mi
8:00 am23 °FPassing clouds.6 mph50%30.11 "Hg15 mi
7:00 am21 °FPassing clouds.5 mph58%30.09 "Hg15 mi
6:00 am21 °FPassing clouds.7 mph58%30.08 "Hg15 mi
5:00 am23 °FPassing clouds.7 mph58%30.06 "Hg15 mi
4:00 am23 °FPassing clouds.3 mph50%30.05 "Hg15 mi
3:00 am23 °FClear.6 mph58%30.04 "Hg15 mi
2:00 am25 °FClear.8 mph54%30.04 "Hg15 mi
1:00 am27 °FClear.8 mph50%30.03 "Hg15 mi
12:00 am27 °FClear.9 mph50%30.02 "Hg15 mi
11:00 pm
Mon, Mar 25
28 °FClear.10 mph40%30.01 "Hg15 mi
10:00 pm28 °FClear.10 mph40%29.99 "Hg15 mi
9:00 pm30 °FClear.8 mph34%29.96 "Hg15 mi
8:00 pm32 °FPassing clouds.9 mph34%29.93 "Hg15 mi
7:00 pm34 °FPassing clouds.14 mph29%29.91 "Hg15 mi
6:00 pm37 °FPassing clouds.14 mph28%29.89 "Hg15 mi
5:00 pm39 °FPassing clouds.16 mph28%29.88 "Hg15 mi
4:00 pm39 °FPassing clouds.21 mph26%29.87 "Hg15 mi
3:00 pm39 °FPassing clouds.20 mph22%29.86 "Hg15 mi
2:00 pm39 °FPassing clouds.15 mph45%29.87 "Hg15 mi
1:00 pm39 °FPassing clouds.16 mph52%29.87 "Hg15 mi
12:00 pm37 °FPartly sunny.17 mph56%29.87 "Hg15 mi
11:00 am36 °FPartly sunny.14 mph75%29.88 "Hg15 mi
10:42 am34 °FPartly sunny.14 mph81%29.87 "Hg15 mi
10:00 am34 °FSnow flurries. Mostly cloudy.14 mph87%29.87 "Hg10 mi
Weather by CustomWeather, © 2019

See weather overview